* Astronomy

Members Login
Username 
 
Password 
    Remember Me  
Post Info TOPIC: Asteroid 2011 YH6


L

Posts: 131433
Date:
Asteroid 2011 YH6
Permalink  
 


Orbital elements:
2011 YH6                                                 Earth MOID = 0.1807 AU
Epoch 2012 Mar. 14.0 TT = JDT 2456000.5                 MPC
M  26.68700              (2000.0)            P               Q
n   0.24805168     Peri.  145.36010     +0.35315558     -0.91689580
a   2.5086569      Node   283.33378     +0.80934513     +0.39912322
e   0.5463980      Incl.   11.01801     +0.46929905     +0.00165872
P   3.97           H   21.6           G   0.15           U   7

MPEC 2011 - Y31



__________________
Page 1 of 1  sorted by
 
Quick Reply

Please log in to post quick replies.



Create your own FREE Forum
Report Abuse
Powered by ActiveBoard